This demonstration page uses our WeatherBlox Daily Observations layout. Learn more.

Hourly Observations for April 25, 2015

Temp ( °F °C ) Dew Point ( °F °C ) Humidity (%) Winds ( mph kmh ) Pressure ( in mb ) Visibility ( mi km ) Precip ( " mm )
12:15 am 00:15 Cloudy with Nearby Thunderstorms 56 13.5 55 12.6 94 94 NE 7 11 29.47 998 2.5 4.02335 0 0
12:35 am 00:35 Cloudy with Heavy Rain 56 13.2 54 12.4 95 95 ESE 8 13 29.47 998 1.75 2.816345 0.17 4.318
12:55 am 00:55 Cloudy with Mist and Fog 55 13 54 12.2 95 95 E 3 6 29.47 998 2.5 4.02335 0.19 4.826
1:15 am 01:15 Cloudy with Nearby Thunderstorms 55 12.8 54 12.1 96 96 Calm 29.47 998 1.75 2.816345 0 0
1:35 am 01:35 Cloudy 55 13 54 12.2 95 95 WSW 7 11 29.47 998 2 3.21868 0 0
1:55 am 01:55 Cloudy with Mist and Fog 55 13 55 12.5 97 97 WNW 9 15 29.5 999 4 6.43736 0 0
2:15 am 02:15 Cloudy with Light Rain 56 13.1 54 12.4 96 96 W 3 6 29.5 999 4 6.43736 0 0
2:35 am 02:35 Partly Cloudy with Nearby Thunderstorms 55 12.8 54 12.1 96 96 Calm 29.47 998 4 6.43736 0 0
2:55 am 02:55 Partly Cloudy with Mist and Fog 55 12.5 53 11.8 96 96 Calm 29.47 998 3 4.82802 0 0
3:15 am 03:15 Mostly Cloudy with Fog 52 11.3 51 10.5 95 95 E 3 6 29.5 999 0.5 0.80467 0 0
3:35 am 03:35 Mostly Cloudy with Mist and Fog 53 11.5 51 10.8 96 96 E 3 6 29.47 998 0.75 1.207005 0 0
3:55 am 03:55 Cloudy with Fog 51 10.5 50 9.9 96 96 Calm 29.5 999 0.25 0.402335 0 0
4:15 am 04:15 Cloudy with Fog 51 10.4 50 9.8 96 96 ENE 3 6 29.5 999 0.25 0.402335 0 0
4:35 am 04:35 Cloudy with Fog 51 10.7 50 10.1 96 96 Calm 29.5 999 0.25 0.402335 0 0
4:55 am 04:55 Cloudy with Fog 51 10.8 50 10.2 96 96 NW 3 6 29.5 999 5 8.0467 0 0
5:15 am 05:15 Cloudy with Fog 52 10.9 51 10.4 97 97 W 5 7 29.53 1000 5 8.0467 0 0
5:35 am 05:35 Cloudy with Fog 51 10.8 51 10.3 97 97 WNW 7 11 29.53 1000 0.5 0.80467 0 0
5:55 am 05:55 Mostly Cloudy with Mist and Fog 50 10.2 49 9.7 97 97 NW 7 11 29.53 1000 3 4.82802 0 0
6:15 am 06:15 Partly Cloudy with Mist and Fog 50 10.1 49 9.6 97 97 WNW 8 13 29.53 1000 4 6.43736 0 0
6:35 am 06:35 Partly Cloudy 50 9.8 49 9.3 97 97 WNW 9 15 29.53 1000 7 11.26538 0 0
6:55 am 06:55 Partly Cloudy 49 9.5 48 9 97 97 NW 9 15 29.53 1000 10 16.0934 0 0
7:15 am 07:15 Partly Cloudy 49 9.5 48 9 97 97 NW 10 17 29.56 1001 10 16.0934 0 0
7:35 am 07:35 Mostly Cloudy 50 9.9 49 9.3 96 96 NNW 9 15 29.56 1001 10 16.0934 0 0
7:55 am 07:55 Cloudy 51 10.5 50 9.9 96 96 NNW 12 19 29.59 1002 10 16.0934 0 0
8:15 am 08:15 Mostly Cloudy 51 10.8 50 10 95 95 NNW 13 20 29.59 1002 10 16.0934 0 0
8:35 am 08:35 Partly Cloudy 52 11.3 50 10.2 93 93 N 10 17 29.59 1002 7 11.26538 0 0
8:55 am 08:55 Sunny 54 12.2 52 11 92 92 NNW 13 20 29.59 1002 7 11.26538 0 0
9:15 am 09:15 Sunny 55 13 52 11.1 88 88 NNW 13 20 29.59 1002 10 16.0934 0 0
9:35 am 09:35 Mostly Cloudy 56 13.5 52 11 85 85 N 12 19 29.59 1002 10 16.0934 0 0
9:55 am 09:55 Cloudy 56 13.6 52 10.9 84 84 N 15 24 29.59 1002 10 16.0934 0 0
10:15 am 10:15 Mostly Cloudy 58 14.2 51 10.8 80 80 N 15 24 29.59 1002 10 16.0934 0 0
10:35 am 10:35 Mostly Cloudy 59 15 52 10.9 77 77 N 16 26 29.59 1002 10 16.0934 0.01 0.254
10:55 am 10:55 Cloudy 58 14.6 51 10.5 77 77 N 16 26 29.62 1003 10 16.0934 0.01 0.254
11:15 am 11:15 Cloudy 58 14.3 51 10.7 79 79 NNE 17 28 29.62 1003 10 16.0934 0 0
11:35 am 11:35 Cloudy 59 14.9 52 11 78 78 NNE 16 26 29.65 1004 10 16.0934 0 0
11:55 am 11:55 Cloudy 59 15.2 52 11 76 76 NE 17 28 29.65 1004 10 16.0934 0 0
12:15 pm 12:15 Cloudy 59 14.9 52 11.1 78 78 NE 16 26 29.65 1004 10 16.0934 0 0
12:35 pm 12:35 Mostly Cloudy 59 15.1 53 11.7 80 80 NNE 13 20 29.65 1004 10 16.0934 0 0
12:55 pm 12:55 Mostly Cloudy 59 15.1 53 11.6 80 80 NE 18 30 29.65 1004 10 16.0934 0 0
1:15 pm 13:15 Cloudy 58 14.5 52 11.3 81 81 NNE 15 24 29.65 1004 10 16.0934 0 0
1:35 pm 13:35 Cloudy 56 13.6 51 10.8 83 83 NNE 14 22 29.65 1004 10 16.0934 0 0
1:55 pm 13:55 Cloudy with Mist and Fog 53 11.7 51 10.3 91 91 NE 15 24 29.71 1006 4 6.43736 0 0
2:15 pm 14:15 Cloudy with Mist and Fog 53 11.7 51 10.6 93 93 NE 12 19 29.71 1006 3 4.82802 0 0
2:35 pm 14:35 Cloudy with Mist and Fog 53 11.8 51 10.6 92 92 NE 10 17 29.71 1006 5 8.0467 0 0
2:55 pm 14:55 Cloudy 54 12.1 51 10.5 90 90 NE 9 15 29.71 1006 7 11.26538 0 0
3:15 pm 15:15 Cloudy 55 12.7 51 10.4 86 86 NNE 7 11 29.71 1006 10 16.0934 0 0
3:35 pm 15:35 Cloudy 55 13 50 10.1 83 83 NE 10 17 29.71 1006 10 16.0934 0 0
3:55 pm 15:55 Cloudy 55 12.9 50 9.9 82 82 ENE 12 19 29.74 1007 10 16.0934 0 0
4:15 pm 16:15 Cloudy 55 12.7 50 9.9 83 83 ENE 13 20 29.74 1007 10 16.0934 0 0
4:35 pm 16:35 Cloudy 54 12.2 49 9.5 84 84 NE 13 20 29.74 1007 10 16.0934 0 0
4:55 pm 16:55 Cloudy 54 12.1 49 9.5 84 84 NE 14 22 29.74 1007 10 16.0934 0 0
5:15 pm 17:15 Cloudy 54 12.1 49 9.5 84 84 ENE 12 19 29.74 1007 10 16.0934 0 0
5:35 pm 17:35 Cloudy 55 12.5 49 9.4 82 82 ENE 13 20 29.74 1007 10 16.0934 0 0
5:55 pm 17:55 Cloudy 55 12.9 49 9.5 80 80 NE 13 20 29.74 1007 10 16.0934 0 0
6:15 pm 18:15 Cloudy 55 12.7 49 9.3 80 80 NE 13 20 29.74 1007 10 16.0934 0 0
6:35 pm 18:35 Cloudy 54 12 48 9 82 82 NE 13 20 29.77 1008 10 16.0934 0 0
6:55 pm 18:55 Cloudy 52 11.2 47 8.6 84 84 NE 13 20 29.77 1008 10 16.0934 0 0
7:15 pm 19:15 Cloudy 52 11 47 8.5 85 85 ENE 15 24 29.77 1008 10 16.0934 0 0
7:35 pm 19:35 Cloudy 51 10.4 47 8.2 86 86 ENE 12 19 29.8 1009 10 16.0934 0 0
7:55 pm 19:55 Cloudy 50 10.1 47 8.2 88 88 ENE 13 20 29.8 1009 10 16.0934 0 0
8:15 pm 20:15 Cloudy 50 9.8 47 8.1 89 89 ENE 14 22 29.8 1009 10 16.0934 0 0
8:35 pm 20:35 Cloudy 49 9.5 46 7.9 90 90 NE 16 26 29.8 1009 7 11.26538 0 0
8:55 pm 20:55 Cloudy 49 9.3 46 8 92 92 ENE 15 24 29.8 1009 7 11.26538 0 0
9:15 pm 21:15 Cloudy with Mist and Fog 48 8.9 46 7.5 91 91 ENE 16 26 29.8 1009 5 8.0467 0 0
9:35 pm 21:35 Cloudy with Mist and Fog 48 8.9 46 7.5 91 91 ENE 15 24 29.8 1009 5 8.0467 0 0
9:55 pm 21:55 Cloudy with Mist and Fog 48 9 46 7.6 91 91 E 13 20 29.83 1010 5 8.0467 0 0
10:15 pm 22:15 Cloudy with Mist and Fog 48 8.7 46 7.5 92 92 ENE 14 22 29.83 1010 5 8.0467 0 0
10:35 pm 22:35 Cloudy with Mist and Fog 47 8.6 46 7.5 93 93 E 16 26 29.83 1010 5 8.0467 0 0
10:55 pm 22:55 Cloudy with Mist and Fog 47 8.2 45 7.1 93 93 ENE 14 22 29.83 1010 5 8.0467 0 0
11:15 pm 23:15 Cloudy with Mist and Fog 47 8.3 45 7.1 92 92 ENE 15 24 29.85 1011 5 8.0467 0 0
11:35 pm 23:35 Cloudy with Mist and Fog 46 8 44 6.6 91 91 E 15 24 29.85 1011 5 8.0467 0 0
11:55 pm 23:55 Cloudy with Mist and Fog 46 7.9 44 6.6 92 92 E 10 17 29.91 1013 5 8.0467 0 0

Powered by AerisWeather